Location: Newark
(41.8083°N, 72.2500°W)
Time: 00:31:57
(UTC+00:00)

Courier 1B Rocket - Visible Passes

Search period start: 28 November 2021 00:00
Search period end: 08 December 2021 00:00
Orbit: 920 x 1202 km, 28.3° (Epoch: 27 November)

Date Brightness Start Highest point End Pass type
(mag) Time Alt. Az. Time Alt. Az. Time Alt. Az.
28 Nov 6.7 08:55:53 22° S 08:55:53 22° S 08:59:55 10° SE visible
28 Nov 7.1 10:44:27 10° SW 10:47:22 13° SSW 10:50:21 10° S visible
29 Nov 7.5 07:58:42 11° SE 07:58:42 11° SE 07:59:08 10° SE visible
29 Nov 6.8 09:45:04 15° SSW 09:46:36 16° SSW 09:50:34 10° SSE visible
30 Nov 7.0 08:47:54 16° S 08:47:54 16° S 08:50:17 10° SSE visible
01 Dec 7.0 09:37:08 12° SSW 09:37:30 12° SSW 09:39:44 10° S visible
02 Dec 7.3 08:39:59 11° SSE 08:39:59 11° SSE 08:40:16 10° SSE visible
